Regional Weather Roundup
Issued by NWS

Home | Current Version | Previous Version | Graphics & Text | Print | Product List | Glossary Off
Versions: 1 2 3 4 5 6 7 8 9 10 11 12 13 14 15 16 17 18 19 20 21 22 23 24 25 26 27 28 29 30 31 32 33 34 35 36 37 38 39 40 41 42 43 44 45 46 47 48 49 50

000
ASUS43 KMKX 220420
RWRWI

WISCONSIN REGIONAL WEATHER ROUNDUP
NATIONAL WEATHER SERVICE MILWAUKEE/SULLIVAN WI
1000 PM CST WED FEB 21 2018

NOTE: "FAIR" INDICATES FEW OR NO CLOUDS BELOW 12,000 FEET WITH NO
SIGNIFICANT WEATHER AND/OR OBSTRUCTIONS TO VISIBILITY.

WIZ001-002-006>008-014>016-023>028-220500-
NORTHWEST WISCONSIN

CITY           SKY/WX    TMP DP  RH WIND       PRES   REMARKS
SUPERIOR ARPT  FAIR       5  -2  73 SW5       30.64R WCI  -4
ASHLAND        FAIR       7   1  76 S7        30.63S WCI  -5
HAYWARD        FAIR       4   0  83 S5        30.62R WCI  -5
SIREN          FAIR       4  -1  81 S3        30.64S
CUMBERLAND     FAIR       5   1  85 CALM      30.62S
RICE LAKE      FAIR       1  -1  88 CALM      30.65R
CHETEK         FAIR       3   0  87 CALM      30.65R
LADYSMITH      FAIR       3   0  85 CALM      30.64S
EAU CLAIRE     FAIR       7   1  76 CALM      30.66R
MENOMONIE      FAIR       6   2  81 CALM      30.66S
NEW RICHMOND   FAIR       4  -1  78 SE3       30.64S
OSCEOLA        FAIR       8   1  74 S3        30.68R
$$

WIZ003>005-009-010-017-018-220500-
NORTH CENTRAL WISCONSIN

CITY           SKY/WX    TMP DP  RH WIND       PRES   REMARKS
MANITOWISH WTR FAIR      -1  -3  91 CALM      30.57F
ARBOR VITAE    FAIR       6   3  87 CALM      30.57F
WOODRUFF       FAIR       6   3  87 CALM      30.57F
RHINELANDER    FAIR       5   1  83 CALM      30.59S
EAGLE RIVER    FAIR       0  -4  82 CALM      30.58S
LAND O LAKES   FAIR      -4  -8  82 CALM      30.60R
PHILLIPS       FAIR       3   1  91 CALM      30.60S
TOMAHAWK       FAIR       2  -1  88 CALM      30.61S
MEDFORD        FAIR       1  -2  85 CALM      30.61R
MERRILL        FAIR       4   1  88 CALM      30.64R
$$

WIZ029-030-035-036-043>047-220500-
CENTRAL WISCONSIN

CITY           SKY/WX    TMP DP  RH WIND       PRES   REMARKS
WAUSAU         FAIR       9   5  84 CALM      30.62S
MOSINEE        PTCLDY     9   3  78 CALM      30.63F
MARSHFIELD     FAIR      10   6  84 CALM      30.62R
STEVENS POINT  FAIR       8   6  91 CALM      30.65S
WAUPACA        FAIR      19  12  75 NW5       30.66S WCI  12
WAUTOMA        FAIR      17  11  77 CALM      30.66S
WISC RAPIDS    FAIR      12   7  80 CALM      30.66S
CAMP DOUGLAS   MOCLDY    14  12  92 CALM      30.64S
$$

WIZ011>013-019>022-031-037>040-048>050-220500-
NORTHEAST WISCONSIN

CITY           SKY/WX    TMP DP  RH WIND       PRES   REMARKS
ANTIGO         FAIR       5   2  88 CALM      30.61S
SHAWANO        FAIR      18  10  69 CALM      30.66S
OCONTO         FAIR      20  11  68 NW5       30.67F WCI  13
STURGEON BAY   FAIR      20  12  71 W7        30.66F WCI  11
GREEN BAY      FAIR      21  11  65 NW3       30.67S
MANITOWOC      FAIR      22  14  71 NW6       30.66F WCI  14
APPLETON       PTCLDY    18   9  68 CALM      30.63F
CLINTONVILLE   FAIR      18   6  58 CALM      30.66S
OSHKOSH        FAIR      20  10  65 N6        30.65S WCI  12
$$

WIZ032>034-041-042-053>061-220500-
SOUTHWEST WISCONSIN

CITY           SKY/WX    TMP DP  RH WIND       PRES   REMARKS
LA CROSSE      FAIR      19  15  84 CALM      30.67R
SPARTA         FAIR      14  13  95 CALM      30.67R
VIROQUA        FAIR      19  17  93 CALM      30.61S
BOSCOBEL       FAIR      23  14  68 NE3       30.65S
PRAIRIE DU CHI FAIR      23  11  59 CALM      30.64F
PLATTEVILLE    FAIR      24  16  72 NE7       30.61S WCI  16
$$

WIZ056-057-062-063-064-067-068-220500-
SOUTH CENTRAL WISCONSIN

CITY           SKY/WX    TMP DP  RH WIND       PRES   REMARKS
REEDSBURG      FAIR      21  13  72 NE3       30.63F
BARABOO/DELLS  FAIR      20  13  72 CALM      30.63F
LONE ROCK      FAIR      24  14  65 NE7       30.64F WCI  16
MINERAL POINT  FAIR      27  16  63 NE5       30.60S WCI  21
MADISON        CLOUDY    22  14  71 NE5       30.64S WCI  16
MIDDLETON      FAIR      25  14  64 NE5       30.63S WCI  19
WATERTOWN      FAIR      22  15  73 CALM      30.65R
MONROE         FAIR      25  16  68 NE8       30.61S WCI  16
JANESVILLE     FAIR      27  19  74 NE6       30.63S WCI  20
$$

WIZ051-052-058>065-066-070>072-220500-
SOUTHEAST WISCONSIN

CITY           SKY/WX    TMP DP  RH WIND       PRES   REMARKS
MILWAUKEE      CLOUDY    26  15  63 N3        30.65S
WAUKESHA       FAIR      23  14  68 CALM      30.65S
MILWAUKEE/TIMM FAIR      25  12  58 N3        30.66S
RACINE         FAIR      26  18  71 N6        30.66F WCI  19
BURLINGTON     FAIR      24  16  72 CALM      30.64S
KENOSHA        FAIR      27  18  69 N3        30.64S
FOND DU LAC    FAIR      22  10  60 N6        30.65F WCI  14
SHEBOYGAN      FAIR      22  13  68 N3        30.65F
WEST BEND      FAIR      23  16  74 CALM      30.65R
JUNEAU         FAIR      21  13  69 N3        30.65R
$$

LSZ147-162-220500-
LAKE SUPERIOR

STATION/POSITION TIME  TEMP    WIND        PRES    WAVE
                       AIR SEA DIR/SP/G            HT/PER
                 (UTC) (F)     (DEG/KT/KT) (MB)    (FT/S)
DEVILS ISLAND    0300   19     210/ 10/ 13 1038.1R
SAXON HARBOR     0340   12     180/  2/  6 1036.6S
$$

LMZ867-665-643>646-220500-
LAKE MICHIGAN

STATION/POSITION TIME  TEMP    WIND        PRES    WAVE
                       AIR SEA DIR/SP/G            HT/PER
                 (UTC) (F)     (DEG/KT/KT) (MB)    (FT/S)
NORTHPORT PIER   0340   20                 1038.3S
KEWAUNEE LAKESHO 0354   22     310/  5/  6 1037.4S
SHEBOYGAN LAKESH 0300   25     330/  6/  6 1039.5R
PORT WASHINGTON  0340   25     360/  3/  5 1038.9F
MILWAUKEE LAKESH 0400   27     360/  5/  6   N/A
KENOSHA   LAKESH 0300   28      20/  9/ 11 1037.6
$$

TC  - TEMPERATURE IN CELSIUS
VSB - VISIBILITY IN STATUTE MILES
WCI - WIND CHILL INDEX
HX  - HEAT INDEX




USA.gov is the U.S. government's official web portal to all federal, state and local government web resources and services.